Leuchars, United Kingdom

10:10 AM BST on May 27, 2017 (GMT +0100)
Leuchars Air Base

Weather History for EGQL - December, 2011

Change the Weather History Date:

Friday, December 2, 2011

  Actual Average Record
Temperature  
Mean Temperature 39 °F -  
Max Temperature 48 °F 42 °F 54 °F (2015)
Min Temperature 30 °F 34 °F 15 °F (2010)
Degree Days  
Heating Degree Days 26    
Moisture  
Dew Point 36 °F    
Average Humidity 85    
Maximum Humidity 100    
Minimum Humidity 58    
Precipitation  
Precipitation 0.00 in - - ()
Sea Level Pressure  
Sea Level Pressure 29.46 in    
Wind  
Wind Speed 13 mph ()    
Max Wind Speed 29 mph    
Max Gust Speed 39 mph    
Visibility 8.2 miles    
Events Rain    
Averages and records for this station are not official NWS values.
T = Trace of Precipitation, MM = Missing Value Source: Averaged Metar Reports

Daily Weather History Graph

Daily Weather History Graph

Search for Another Location

Airport or City:

Trip Planner

Search our weather history database for the weather conditions in past years. The results will help you decide how hot, cold, wet, or windy it might be!

Date:

Astronomy

Dec. 02, 2011 Rise Set
Actual Time 8:21 AM GMT 3:39 PM GMT
Civil Twilight 7:35 AM GMT 4:25 PM GMT
Nautical Twilight 6:46 AM GMT 5:14 PM GMT
Astronomical Twilight 6:01 AM GMT 5:59 PM GMT
Moon 12:26 PM GMT (12/2) No Moon Set
Length of Visible Light 8h 50m
Length of Day
7h 17m
Waxing Crescent, 51% of the Moon is Illuminated
Dec 2
Waxing Crescent
Dec 10
Full
Dec 18
Last Quarter
Dec 24
New
Jan 1
First Quarter

Hourly Weather History & Observations

Time (GMT) Temp. Windchill Dew Point Humidity Pressure Visibility Wind Dir Wind Speed Gust Speed Precip Events Conditions
12:50 AM 32.0 °F 26.4 °F 32.0 °F 100% 29.65 in 6.2 mi West 5.8 mph - N/A   Mostly Cloudy
2:50 AM 32.0 °F 23.6 °F 30.2 °F 93% 29.68 in 6.2 mi West 10.4 mph - N/A   Partly Cloudy
3:50 AM 32.0 °F 25.6 °F 30.2 °F 93% 29.65 in 6.2 mi West 6.9 mph - N/A   Partly Cloudy
4:50 AM 30.2 °F 24.3 °F 28.4 °F 93% 29.65 in 6.2 mi WSW 5.8 mph - N/A   Partly Cloudy
5:50 AM 31 °F - 29 °F 91% 29.68 in 14 mi WSW 9.2 mph - -   Scattered Clouds
5:50 AM 30.2 °F 21.9 °F 30.2 °F 100% 29.65 in 6.2 mi WSW 9.2 mph - N/A   Partly Cloudy
6:50 AM 33.8 °F 27.0 °F 32.0 °F 93% 29.65 in 6.2 mi WSW 8.1 mph - N/A   Partly Cloudy
7:50 AM 33.8 °F 24.3 °F 32.0 °F 93% 29.65 in 6.2 mi WSW 13.8 mph - N/A   Scattered Clouds
8:50 AM 34 °F - 32 °F 89% 29.68 in 19 mi WSW 16.1 mph - -   Scattered Clouds
9:50 AM 35.6 °F 28.6 °F 32.0 °F 87% 29.65 in 6.2 mi West 9.2 mph - N/A   Mostly Cloudy
10:50 AM 37.4 °F 30.3 °F 35.6 °F 93% 29.65 in 6.2 mi West 10.4 mph - N/A   Mostly Cloudy
11:50 AM 39 °F - 36 °F 85% 29.62 in 14 mi WSW 13.8 mph - -   Scattered Clouds
11:50 AM 39.2 °F 31.2 °F 35.6 °F 87% 29.62 in 6.2 mi WSW 13.8 mph - N/A   Mostly Cloudy
12:50 PM 41.0 °F 33.1 °F 37.4 °F 87% 29.56 in 6.2 mi WSW 15.0 mph - N/A   Mostly Cloudy
1:50 PM 44.6 °F 36.4 °F 37.4 °F 76% 29.53 in 6.2 mi WSW 20.7 mph - N/A   Mostly Cloudy
2:50 PM 42 °F - 36 °F 72% 29.50 in 16 mi WSW 20.7 mph - -   Partly Cloudy
2:50 PM 42.8 °F 34.0 °F 35.6 °F 76% 29.47 in 6.2 mi WSW 20.7 mph - N/A   Scattered Clouds
3:50 PM 42.8 °F 33.5 °F 37.4 °F 81% 29.44 in 6.2 mi SW 23.0 mph - N/A   Mostly Cloudy
4:50 PM 42.8 °F 34.0 °F 37.4 °F 81% 29.42 in 6.2 mi SW 20.7 mph - N/A   Mostly Cloudy
5:50 PM 42 °F - 39 °F 83% 29.36 in 10 mi SW 23.0 mph - - Rain Light Rain
5:50 PM 42.8 °F 33.5 °F 39.2 °F 87% 29.36 in 6.2 mi SW 23.0 mph - N/A Rain Light Rain
6:50 PM 44.6 °F 35.9 °F 39.2 °F 81% 29.27 in 6.2 mi SW 23.0 mph - N/A Rain Light Rain
7:50 PM 44.6 °F 35.1 °F 41.0 °F 87% 29.21 in 6.2 mi SW 27.6 mph 39.1 mph N/A Rain Light Rain
8:50 PM 47 °F - 42 °F 77% 29.18 in 19 mi WSW 27.6 mph - - Rain Light Rain
8:50 PM 46.4 °F 37.5 °F 42.8 °F 87% 29.15 in 6.2 mi WSW 27.6 mph - N/A Rain Light Rain
9:50 PM 48.2 °F - 44.6 °F 87% 29.12 in 6.2 mi WSW 24.2 mph - N/A   Mostly Cloudy
10:50 PM 48.2 °F - 42.8 °F 82% 29.09 in 6.2 mi WSW 26.5 mph 38.0 mph N/A   Mostly Cloudy
11:50 PM 48 °F - 38 °F 58% 29.11 in 31 mi West 28.8 mph - -   Partly Cloudy
11:50 PM 48.2 °F - 37.4 °F 66% 29.09 in 6.2 mi West 28.8 mph - N/A   Mostly Cloudy